{"data":{"norad_id":47896,"epoch":"2026-09-20T03:19:57.636192Z","epoch_age_seconds":61049,"freshness":"FRESH","line1":"1 47896U 21021AN  26263.13886153 -.00000494  00000+0 -41585-5 0  9990","line2":"2 47896  53.1605  96.0363 0000985  76.8460 283.2651 15.31701580305811","mean_motion":15.3170158,"eccentricity":9.85e-5,"inclination_deg":53.1605,"raan_deg":96.0363,"arg_perigee_deg":76.846,"mean_anomaly_deg":283.2651,"bstar":-4.1585e-6,"rev_number":30581,"period_min":94.013090983428,"perigee_km":470.06067141181,"apogee_km":471.40989925202,"semimajor_km":6848.8722853319,"source":"CELESTRAK","updated_at":"2026-09-20T09:00:38.756661Z"}}